[[{"header":{"parameterUnit":"m.s-1","parameterCategory":1,"la1":30.2991,"la2":30.254,"lo1":-89.0895,"lo2":-89.0444,"dy":0.0017,"dx":0.0017,"nx":28,"ny":28,"refTime":"2024-05-05T09:00:00:Z","depth":0,"parameterNumber":2,"parameterNumberName":"U-component_of_WINDS"},"data":[0,0,0,0,0,0,0,0,0,0,0,0,0,0,0,0,0,0,0,0,0,0,0,0,0,0,0,0,0,0,0,0,0,0,0,0,0,0,0,0,0,0,0,0,0,0,0,0,0,0,0,0,0,0,0,0,0,0,-1.4914,-1.4914,0,-1.4974,-1.4975,-1.4976,-1.4976,-1.4975,-1.4974,-1.4973,-1.5038,-1.5041,-1.5043,0,0,0,0,0,0,0,0,0,0,0,0,0,-1.4801,-1.4804,-1.4914,-1.4914,-1.4915,-1.4974,-1.4975,-1.4976,-1.4976,-1.4975,-1.4974,-1.4973,-1.5037,-1.504,-1.5043,0,0,0,0,0,0,0,0,0,0,0,0,0,-1.4855,-1.4804,-1.4913,-1.4922,-1.4924,-1.4974,-1.4975,-1.4976,-1.4976,-1.4975,-1.4974,-1.4973,-1.5036,-1.504,-1.5044,-1.509,0,0,-1.5055,-1.5056,0,0,0,0,0,0,0,0,-1.4852,-1.4859,-1.492,-1.4922,-1.4923,-1.4966,-1.4959,-1.5014,-1.4976,-1.4956,-1.4973,-1.4972,-1.5015,-1.5021,-1.5035,-1.5093,-1.5096,-1.5055,-1.5057,-1.5059,-1.506,0,0,0,0,0,0,0,-1.4848,-1.4856,-1.4938,-1.4921,-1.4923,-1.4924,-1.4931,-1.497,-1.4992,-1.4958,-1.4958,-1.4965,-1.5016,-1.5031,-1.5036,-1.5097,-1.5055,-1.5058,-1.5061,-1.5062,-1.5197,-1.5199,0,0,0,0,0,0,-1.4842,-1.4853,-1.4936,-1.4939,-1.4884,-1.4927,-1.4934,-1.4954,-1.4991,-1.4996,-1.4966,-1.4965,-1.5025,-1.5032,-1.5038,-1.5096,-1.5059,-1.5062,-1.5065,-1.5196,-1.5198,-1.5199,0,0,0,0,0,0,-1.484,-1.485,-1.4933,-1.4896,-1.4907,-1.493,-1.4952,-1.4955,-1.4971,-1.4997,-1.5002,-1.4977,-1.5025,-1.5033,-1.5077,-1.5098,-1.5064,-1.5067,-1.5194,-1.5197,-1.5198,-1.5211,0,0,0,0,0,0,-1.4837,-1.4849,-1.4866,-1.4897,-1.4909,-1.497,-1.4953,-1.4958,-1.4977,-1.4976,-1.5009,-1.5013,-1.5024,-1.5072,-1.5081,-1.5103,-1.507,-1.5193,-1.5195,-1.5198,-1.5209,-1.5213,-1.5217,0,0,0,0,0,-1.4833,-1.4867,-1.4867,-1.4876,-1.4931,-1.4971,-1.4978,-1.499,-1.4978,-1.4996,-1.5014,-1.5012,-1.5094,-1.5076,-1.5087,-1.511,-1.5191,-1.5195,-1.5198,-1.5207,-1.5212,-1.5217,0,0,0,0,0,0,-1.4839,-1.4871,-1.4871,-1.4916,-1.4941,-1.4971,-1.4994,-1.4995,-1.5024,-1.5022,-1.5035,-1.5043,-1.5087,-1.5103,-1.5082,-1.5157,-1.5142,-1.5147,-1.5145,-1.515,-1.5154,-1.515,-1.5073,0,0,0,0,0,-1.4845,-1.4874,-1.4902,-1.4939,-1.4951,-1.4971,-1.4989,-1.4995,-1.5021,-1.5032,-1.5053,-1.5079,-1.5111,-1.5131,-1.5162,-1.5211,-1.5219,-1.5232,-1.5236,-1.5239,-1.5244,-1.5272,-1.5279,-1.5209,-1.5209,-1.5209,0,0,-1.4859,-1.4881,-1.4898,-1.4941,-1.4961,-1.4992,-1.4979,-1.5012,-1.5036,-1.5037,-1.508,-1.5096,-1.5127,-1.5173,-1.5195,-1.5188,-1.5265,-1.5243,-1.5246,-1.5249,-1.5276,-1.5283,-1.5288,-1.5212,-1.5211,-1.5211,0,0,-1.49,-1.4919,-1.4953,-1.4973,-1.5003,-1.5015,-1.5023,-1.5054,-1.5064,-1.5107,-1.5109,-1.5138,-1.5192,-1.5214,-1.5232,-1.5283,-1.5283,-1.5292,-1.5314,-1.5341,-1.5347,-1.5352,-1.5371,-1.5377,-1.5297,-1.5297,-1.5297,0,-1.4914,-1.496,-1.497,-1.5004,-1.5023,-1.5025,-1.506,-1.5079,-1.5118,-1.5132,-1.5123,-1.5192,-1.5212,-1.5265,-1.5277,-1.5291,-1.5302,-1.5289,-1.5345,-1.535,-1.5355,-1.5373,-1.538,-1.5298,-1.5298,-1.5298,-1.5298,0,-1.4976,-1.5008,-1.5032,-1.5068,-1.509,-1.5124,-1.5141,-1.5162,-1.5167,-1.5181,-1.5225,-1.525,-1.5286,-1.5299,-1.5304,-1.5353,-1.5348,-1.5342,-1.5326,-1.5362,-1.538,-1.5387,-1.5299,-1.5299,-1.5299,-1.5298,0,0,-1.5023,-1.5065,-1.5073,-1.509,-1.5124,-1.5149,-1.5184,-1.5218,-1.5237,-1.5264,-1.5294,-1.534,-1.5335,-1.5356,-1.5364,-1.5388,-1.5427,-1.5379,-1.538,-1.5388,-1.5484,-1.5488,-1.5496,-1.5428,-1.5429,-1.543,-1.5481,0,-1.5069,-1.5129,-1.5139,-1.5193,-1.5223,-1.5226,-1.5256,-1.5281,-1.5295,-1.5323,-1.5339,-1.5372,-1.5363,-1.5375,-1.5399,-1.5417,-1.5447,-1.5414,-1.5457,-1.5459,-1.545,-1.5505,-1.551,-1.5557,-1.5488,-1.5489,-1.549,0,-1.513,-1.5157,-1.5213,-1.5243,-1.5256,-1.5283,-1.5316,-1.5343,-1.5372,-1.538,-1.5404,-1.5409,-1.5447,-1.5429,-1.5482,-1.5459,-1.5478,-1.5489,-1.5492,-1.5497,-1.5477,-1.5512,-1.5572,-1.5579,-1.5501,-1.55,-1.5499,0,-1.5159,-1.5211,-1.5251,-1.5265,-1.5301,-1.532,-1.5336,-1.5363,-1.5384,-1.5413,-1.5427,-1.546,-1.5479,-1.5505,-1.552,-1.5506,-1.5572,-1.5556,-1.5581,-1.5581,-1.5596,-1.5595,-1.566,-1.5606,-1.5606,-1.5606,-1.5606,0,-1.521,-1.5244,-1.5265,-1.529,-1.5329,-1.5341,-1.538,-1.5396,-1.542,-1.5449,-1.5454,-1.5481,-1.5499,-1.5529,-1.5541,-1.5583,-1.5592,-1.5601,-1.5604,-1.5601,-1.56,-1.5613,-1.5611,-1.5608,-1.5607,-1.5607,-1.5607,0,-1.525,-1.5265,-1.5309,-1.5339,-1.5348,-1.5375,-1.5401,-1.5427,-1.5441,-1.5477,-1.5487,-1.551,-1.5546,-1.5563,-1.5607,-1.5616,-1.5664,-1.5664,-1.5654,-1.5655,-1.568,-1.5678,-1.5758,-1.5769,-1.5707,-1.5707,-1.5708,0,-1.5281,-1.5308,-1.534,-1.5359,-1.5376,-1.5407,-1.5427,-1.5441,-1.5462,-1.5497,-1.5518,-1.5554,-1.5584,-1.5641,-1.5663,-1.5697,-1.5699,-1.5724,-1.5704,-1.5701,-1.5701,-1.5699,-1.5702,-1.5728,-1.5729,-1.5729,-1.573,0,-1.5336,-1.5342,-1.5371,-1.5403,-1.5427,-1.5453,-1.5479,-1.5495,-1.5513,-1.5537,-1.5573,-1.5596,-1.5642,-1.5678,-1.5714,-1.5732,-1.5735,-1.5736,-1.5744,-1.5742,-1.5735,-1.574,-1.5665,-1.5734,-1.5734,-1.5733,-1.5733,-1.5733,-1.5373,-1.5397,-1.5424,-1.5456,-1.5477,-1.5501,-1.5526,-1.5543,-1.5573,-1.5611,-1.5617,-1.5656,-1.5685,-1.5733,-1.5752,-1.5784,-1.5778,-1.579,-1.5793,-1.5796,-1.5797,-1.5729,-1.5791,-1.5791,-1.5791,-1.579,-1.579,0,-1.5429,-1.5446,-1.5476,-1.5511,-1.5537,-1.5536,-1.5564,-1.5587,-1.562,-1.5646,-1.5675,-1.5718,-1.5753,-1.5777,-1.5813,-1.5834,-1.5836,-1.5843,-1.5842,-1.5846,-1.58,-1.579,-1.584,-1.584,-1.584,-1.584,-1.584,-1.584,-1.5461,-1.5502,-1.5511,-1.5563,-1.558,-1.5617,-1.5634,-1.5657,-1.5677,-1.5724,-1.5753,-1.5768,-1.5794,-1.5832,-1.5864,-1.5871,-1.5884,-1.5891,-1.5898,-1.5854,-1.5849,-1.5844,-1.5835,-1.5894,-1.5894,-1.5941,-1.5942,-1.5942]},{"header":{"parameterUnit":"m.s-1","parameterCategory":1,"la1":30.2991,"la2":30.254,"lo1":-89.0895,"lo2":-89.0444,"dy":0.0017,"dx":0.0017,"nx":28,"ny":28,"refTime":"2024-05-05T09:00:00:Z","depth":0,"parameterNumber":3,"parameterNumberName":"V-component_of_WINDS"},"data":[0,0,0,0,0,0,0,0,0,0,0,0,0,0,0,0,0,0,0,0,0,0,0,0,0,0,0,0,0,0,0,0,0,0,0,0,0,0,0,0,0,0,0,0,0,0,0,0,0,0,0,0,0,0,0,0,0,0,3.5683,3.5684,0,3.5762,3.5762,3.5763,3.5741,3.5739,3.5738,3.5736,3.5813,3.5816,3.582,0,0,0,0,0,0,0,0,0,0,0,0,0,3.5511,3.5514,3.5683,3.5684,3.5685,3.5761,3.5762,3.5764,3.5741,3.5739,3.5737,3.5735,3.5812,3.5816,3.582,0,0,0,0,0,0,0,0,0,0,0,0,0,3.5587,3.5515,3.5683,3.5683,3.5684,3.5761,3.5763,3.5764,3.5742,3.5739,3.5737,3.5734,3.581,3.5816,3.5821,3.5902,0,0,3.5837,3.5839,0,0,0,0,0,0,0,0,3.5583,3.5593,3.5682,3.5683,3.5684,3.5739,3.573,3.581,3.5742,3.572,3.5736,3.5733,3.579,3.5797,3.5817,3.5905,3.5908,3.5838,3.5841,3.5843,3.5845,0,0,0,0,0,0,0,3.5578,3.559,3.5714,3.5683,3.5685,3.5678,3.5687,3.5745,3.5767,3.5721,3.572,3.573,3.579,3.5812,3.5818,3.591,3.5837,3.5842,3.5845,3.5847,3.6069,3.6071,0,0,0,0,0,0,3.5572,3.5586,3.5711,3.5716,3.5627,3.5683,3.5693,3.5724,3.5767,3.5771,3.5732,3.5728,3.5804,3.5812,3.5821,3.5919,3.5843,3.5848,3.5851,3.6066,3.6069,3.6072,0,0,0,0,0,0,3.5568,3.5583,3.5708,3.5651,3.5666,3.5689,3.5724,3.5727,3.5748,3.5774,3.5778,3.575,3.5802,3.5814,3.5882,3.5921,3.585,3.5855,3.6063,3.6067,3.6071,3.6115,0,0,0,0,0,0,3.5563,3.5582,3.5614,3.5652,3.5669,3.5769,3.5727,3.573,3.5758,3.5754,3.5792,3.5796,3.5801,3.5874,3.5887,3.5927,3.5859,3.6059,3.6065,3.607,3.611,3.612,3.6129,0,0,0,0,0,3.5557,3.5622,3.5616,3.5631,3.5709,3.5771,3.5781,3.5787,3.5761,3.5793,3.581,3.5795,3.5915,3.5882,3.5896,3.5938,3.6057,3.6063,3.6069,3.6106,3.6118,3.6128,0,0,0,0,0,0,3.5587,3.5627,3.562,3.5699,3.5732,3.5768,3.5807,3.5799,3.5839,3.5834,3.5838,3.5847,3.5917,3.5934,3.5897,3.6019,3.5982,3.5991,3.6005,3.6017,3.6026,3.602,3.5864,0,0,0,0,0,3.5603,3.5651,3.5683,3.575,3.5767,3.5784,3.5812,3.5813,3.5847,3.586,3.5882,3.5915,3.596,3.5989,3.6032,3.6113,3.6121,3.6149,3.6158,3.6165,3.6173,3.6218,3.6231,3.6092,3.6092,3.6092,0,0,3.5636,3.5664,3.5694,3.5756,3.5782,3.5831,3.5796,3.5849,3.5885,3.5868,3.5935,3.5952,3.5988,3.6063,3.6098,3.608,3.6213,3.6173,3.6179,3.6183,3.6225,3.6238,3.625,3.6096,3.6096,3.6095,0,0,3.5721,3.5747,3.5806,3.5833,3.5873,3.5884,3.5898,3.5935,3.5947,3.6014,3.6002,3.6044,3.6122,3.6148,3.6172,3.6269,3.6257,3.6282,3.633,3.6374,3.6384,3.6394,3.6429,3.6441,3.629,3.629,3.629,0,3.5757,3.5831,3.5837,3.5892,3.592,3.5908,3.5967,3.5992,3.6043,3.6063,3.6042,3.614,3.6163,3.6245,3.6269,3.6288,3.6304,3.6278,3.6383,3.6392,3.6401,3.6435,3.6448,3.6293,3.6293,3.6292,3.6292,0,3.5873,3.5925,3.5968,3.6019,3.6052,3.6108,3.6122,3.6154,3.6153,3.6166,3.6235,3.6263,3.6312,3.6331,3.6329,3.6413,3.64,3.6381,3.6345,3.6418,3.6449,3.6461,3.6297,3.6296,3.6295,3.6295,0,0,3.5979,3.6034,3.605,3.6073,3.6117,3.6156,3.6212,3.6261,3.6289,3.6324,3.6371,3.6437,3.6421,3.6447,3.6449,3.6487,3.6562,3.6463,3.6464,3.6481,3.6656,3.667,3.6685,3.6555,3.6557,3.6559,3.6653,0,3.6069,3.6169,3.6176,3.6265,3.6313,3.6303,3.6351,3.6383,3.6397,3.6439,3.6454,3.6501,3.6475,3.6491,3.6528,3.6545,3.6597,3.6538,3.6598,3.66,3.659,3.6701,3.6716,3.6804,3.6665,3.6667,3.6669,0,3.6187,3.6228,3.6323,3.636,3.638,3.6424,3.647,3.651,3.6545,3.6553,3.6584,3.658,3.6637,3.6598,3.6676,3.6636,3.6661,3.6673,3.6677,3.6682,3.6639,3.671,3.6831,3.6845,3.6688,3.6686,3.6685,0,3.6255,3.6334,3.6401,3.6421,3.6466,3.6498,3.6518,3.6551,3.658,3.6619,3.6638,3.6683,3.6708,3.6743,3.6752,3.6722,3.683,3.6792,3.6837,3.6837,3.6861,3.6859,3.6988,3.6876,3.6876,3.6875,3.6875,0,3.6354,3.6413,3.6433,3.6474,3.6539,3.6546,3.661,3.6628,3.6658,3.6702,3.6695,3.6737,3.6745,3.6788,3.6795,3.6859,3.687,3.6878,3.6879,3.6879,3.6878,3.6895,3.6889,3.6879,3.6878,3.6878,3.6877,0,3.6442,3.6457,3.653,3.6567,3.6578,3.6625,3.6656,3.6695,3.6709,3.6765,3.6778,3.6799,3.6849,3.6862,3.6921,3.6926,3.7002,3.6997,3.699,3.699,3.7035,3.7031,3.718,3.72,3.7075,3.7076,3.7077,0,3.6505,3.655,3.6592,3.6622,3.6644,3.6692,3.6722,3.673,3.6762,3.6806,3.684,3.689,3.693,3.7011,3.7031,3.7076,3.7073,3.7122,3.708,3.7078,3.7074,3.7072,3.7076,3.713,3.7131,3.7132,3.7133,0,3.6615,3.662,3.6665,3.6712,3.6748,3.6786,3.6821,3.6846,3.6859,3.6895,3.6947,3.6978,3.704,3.7089,3.7135,3.7155,3.7147,3.7146,3.716,3.716,3.7155,3.7159,3.7013,3.7143,3.7142,3.7141,3.7141,3.714,3.6692,3.6732,3.6769,3.6818,3.6846,3.688,3.6919,3.6938,3.6982,3.7033,3.7035,3.7092,3.7126,3.7188,3.721,3.7254,3.7239,3.7258,3.7263,3.7267,3.7272,3.7147,3.7262,3.7262,3.7262,3.7262,3.7261,0,3.6802,3.6825,3.6871,3.6922,3.6961,3.695,3.6989,3.7022,3.7073,3.7106,3.7146,3.7206,3.7255,3.7279,3.7326,3.7357,3.7354,3.7369,3.7367,3.7372,3.7282,3.7266,3.7371,3.7371,3.7371,3.737,3.737,3.737,3.6864,3.6931,3.6941,3.7022,3.7044,3.7101,3.7124,3.7155,3.7182,3.725,3.729,3.7306,3.7335,3.7385,3.7429,3.7434,3.7452,3.7469,3.7473,3.7389,3.7378,3.7367,3.7353,3.7473,3.7473,3.7559,3.756,3.7561]}]]